Wind_Speed
29 29 29 31 33 35 36 37 38 40 42 42 43 44 46 46 47 47 46 45 46 44 43 44 45 45 42 42 41 40 41 42 43 39 35 34 35 32 34 35 38 37 34 31 33
33 33 33 34 36 39 41 41 43 45 45 47 48 49 49 49 50 51 50 50 50 51 51 50 50 50 50 48 46 44 44 44 45 43 39 35 35 35 34 34 36 38 33 30 29
37 37 38 38 38 39 41 43 45 46 47 47 47 48 49 51 51 53 50 51 52 52 51 49 49 49 48 48 45 44 45 43 46 46 45 39 37 35 36 34 35 36 31 28 25
36 38 39 38 38 39 42 45 45 46 48 50 51 51 53 54 54 55 58 58 57 56 55 54 52 53 52 50 48 45 45 46 47 47 45 42 39 37 37 35 36 36 31 25 24
37 38 40 42 44 44 45 48 49 49 52 54 57 59 61 59 58 60 60 61 62 63 62 61 60 57 54 54 50 49 50 46 48 48 45 44 42 37 37 39 37 37 31 24 19
41 42 43 45 46 48 50 50 52 54 57 58 58 58 60 53 55 56 58 60 60 61 61 61 62 62 61 61 57 53 51 50 49 53 47 45 44 39 38 39 38 37 32 23 20
42 44 46 47 47 50 53 53 55 53 50 47 44 43 44 39 40 41 42 44 46 48 51 50 51 54 54 55 54 54 55 53 53 55 51 48 49 42 41 40 38 37 35 27 20
47 50 52 54 51 50 49 47 43 36 32 33 35 36 41 42 40 41 41 42 44 46 47 48 46 47 50 54 53 49 45 53 58 58 57 50 49 47 42 41 39 38 36 33 18
50 47 48 49 47 46 38 33 34 36 34 35 36 38 41 45 44 45 47 48 48 49 48 48 46 44 46 48 49 48 45 45 56 61 63 55 48 53 44 45 41 40 38 35 24
45 41 34 30 29 32 31 30 28 27 31 33 36 37 41 45 49 51 51 54 55 54 52 52 49 47 44 48 48 50 49 48 48 55 58 52 48 51 47 40 46 41 40 37 34
28 28 28 27 25 23 22 23 25 27 32 34 38 40 42 46 49 53 56 57 56 54 54 53 52 53 53 52 50 50 51 52 54 58 53 52 47 51 52 42 45 44 42 40 38
23 21 22 21 21 22 24 26 29 31 34 39 41 43 46 47 46 50 53 55 55 55 55 56 58 60 61 62 61 57 53 53 59 65 56 57 41 43 52 47 44 45 43 42 40
19 18 19 20 22 25 28 32 34 35 36 41 44 45 48 50 50 51 52 52 53 54 56 58 62 65 69 71 71 67 64 62 63 66 61 60 46 43 43 49 46 45 45 43 42
22 22 24 26 29 31 33 36 39 42 40 44 47 48 49 52 51 53 54 53 54 55 57 61 65 70 74 77 76 70 73 75 73 68 63 62 49 45 42 42 50 48 49 46 43
30 30 33 34 35 37 39 42 44 46 46 48 50 52 53 53 54 56 56 56 57 59 62 67 69 73 78 76 74 67 75 77 77 73 65 62 49 51 45 40 47 51 51 50 46
37 39 39 42 43 43 44 46 48 50 52 53 56 57 60 58 56 57 58 55 58 62 64 69 71 76 72 66 66 65 69 70 70 70 68 59 55 51 50 45 43 52 52 54 50
43 44 46 46 47 48 48 50 52 56 56 58 60 62 64 64 62 61 61 59 58 62 68 72 75 76 65 60 57 57 61 63 63 67 66 64 57 45 52 49 48 45 53 57 52
48 49 50 50 52 52 53 53 54 55 59 61 64 66 68 68 68 66 63 62 62 64 68 72 77 74 61 52 48 46 50 55 57 60 61 64 55 46 52 52 51 47 46 53 52
53 53 54 55 55 56 57 56 57 60 63 66 67 72 72 72 71 69 66 68 68 66 68 73 79 75 60 50 44 38 43 47 50 52 55 61 53 52 51 56 54 51 51 51 55
58 59 60 60 60 59 60 59 60 64 66 69 71 74 73 74 73 70 70 72 70 69 70 75 81 76 61 51 43 35 35 43 49 50 51 52 55 58 61 64 59 56 58 52 52
60 61 62 62 62 61 61 62 64 66 69 71 73 74 73 75 74 73 74 73 73 74 73 76 80 77 64 51 43 35 33 38 45 43 45 45 46 57 62 61 57 58 60 54 54
63 63 64 65 64 64 64 65 68 70 72 74 76 74 75 73 77 75 76 75 72 73 78 78 75 71 65 53 41 35 32 34 40 43 38 38 40 54 58 58 58 59 58 56 56
68 68 68 68 69 69 69 71 73 74 75 76 76 76 77 75 75 76 77 77 75 74 78 79 73 64 60 55 41 30 31 35 36 41 41 39 44 55 57 59 59 59 58 58 59
71 71 72 71 73 73 73 75 78 79 79 80 77 78 77 76 75 75 77 79 78 77 78 74 70 61 56 51 39 30 31 35 35 36 41 39 50 52 55 58 59 60 59 58 59
76 76 76 76 77 78 78 80 83 83 83 83 81 80 78 77 77 76 75 79 81 79 78 67 63 57 55 46 34 28 29 31 32 35 33 44 53 55 54 55 57 60 58 55 55
80 80 80 82 82 82 83 85 86 86 85 83 83 83 82 78 78 79 78 78 82 81 74 62 57 51 51 41 32 24 22 22 27 24 31 38 48 53 52 54 55 57 57 54 53
86 86 85 85 86 86 86 86 87 87 87 86 87 85 81 81 80 80 82 82 81 81 69 59 50 48 44 33 25 17 16 20 15 9 16 29 40 46 48 51 53 54 54 54 53
Wind_Direction
274 277 281 281 283 287 289 290 292 294 293 292 292 292 294 294 296 297 298 297 300 301 300 301 304 306 307 308 311 315 316 319 321 324 331 337 338 349 350 355 358 7 5 7 18
275 278 282 282 282 285 285 287 289 289 289 290 292 293 293 293 294 297 297 299 299 300 301 301 301 302 304 305 307 308 309 310 310 313 319 325 328 337 342 344 349 358 2 2 10
276 277 277 280 281 283 284 285 284 285 286 286 287 288 290 292 293 293 293 293 292 292 293 293 293 294 294 296 296 296 298 296 300 304 308 314 318 325 327 332 337 346 354 356 0
271 271 274 277 280 283 281 280 282 284 286 288 290 290 290 291 294 295 292 291 291 292 292 291 289 288 289 287 289 286 285 288 293 295 298 303 306 313 317 321 327 332 347 353 353
273 273 273 274 276 278 279 280 281 285 289 292 294 294 293 293 295 292 291 291 291 290 289 288 286 284 281 280 279 279 280 280 282 284 288 292 295 301 307 309 316 321 335 337 352
269 269 271 274 275 280 283 286 290 293 293 294 293 291 290 294 292 290 289 289 289 288 288 287 286 284 281 278 276 274 275 274 275 277 279 282 285 289 293 299 305 312 320 327 337
271 274 277 281 283 286 289 291 290 291 293 293 293 295 298 299 297 296 294 296 297 296 293 291 290 288 285 279 278 276 271 269 267 269 271 274 277 279 284 288 294 300 307 317 322
280 283 285 286 288 288 286 287 291 292 294 295 297 296 297 299 298 297 297 297 298 296 294 292 287 284 278 276 276 276 271 265 260 262 264 265 268 272 275 280 285 289 297 301 311
284 285 284 283 281 281 284 287 290 291 292 295 298 300 303 304 303 303 304 304 303 301 300 300 299 292 285 280 278 273 264 262 259 259 264 262 261 269 269 275 276 279 284 287 296
280 280 278 280 281 285 285 286 290 299 302 304 305 308 307 307 307 307 307 307 307 305 304 302 302 299 290 282 279 271 266 265 264 262 261 260 256 258 259 259 267 270 274 278 285
271 277 277 277 276 282 293 302 306 309 309 312 310 309 308 307 308 308 308 308 308 306 305 307 307 302 295 289 284 278 273 266 262 261 258 256 250 247 252 247 255 263 266 271 274
264 265 271 279 290 297 302 306 310 312 316 316 313 313 311 308 307 305 306 307 307 307 309 309 306 300 297 291 286 281 276 270 264 262 260 260 251 249 249 244 244 253 259 263 268
266 271 280 290 296 300 303 307 305 305 312 315 313 314 315 311 311 309 307 305 303 304 305 304 302 301 298 293 287 283 277 269 261 259 258 256 253 251 251 244 237 242 249 255 261
273 277 280 287 289 292 298 300 302 304 311 314 313 314 315 313 311 310 307 304 301 299 299 299 301 301 300 294 286 278 271 264 263 258 256 254 251 250 248 245 238 235 243 247 253
273 277 281 281 284 289 294 297 299 303 308 309 311 313 314 314 312 310 308 304 301 301 301 301 302 303 302 293 285 279 270 265 262 261 255 256 248 247 242 241 237 232 238 244 246
277 280 282 285 287 289 291 294 297 301 304 308 311 313 314 313 311 309 308 305 303 303 302 302 302 305 303 292 284 274 267 263 263 258 257 256 247 240 243 237 238 231 230 239 243
278 281 282 285 288 289 288 291 295 299 302 305 309 311 313 312 311 311 310 309 308 308 308 309 311 313 307 297 286 275 265 259 256 255 254 251 244 233 239 237 238 235 227 234 239
278 281 282 284 287 288 290 292 296 299 301 304 308 311 312 311 311 311 310 310 310 311 312 314 316 316 311 304 291 277 263 257 250 246 243 241 238 226 233 236 232 235 233 235 233
278 280 281 283 285 287 290 293 296 299 300 303 307 309 311 310 310 310 311 312 314 315 316 319 320 319 316 312 301 289 266 257 248 245 242 237 235 232 230 235 232 230 235 233 230
276 278 279 282 285 287 289 292 295 297 299 302 305 308 308 309 310 310 312 313 314 316 320 322 323 322 319 315 307 291 265 253 242 237 239 237 231 227 228 229 230 227 230 234 232
275 277 279 282 284 286 288 291 294 296 298 301 304 306 307 308 309 310 312 313 315 318 322 323 324 321 318 318 311 296 269 253 242 236 232 230 231 226 224 223 223 227 232 231 231
274 277 279 281 284 286 289 291 293 296 298 301 303 304 306 308 308 310 311 313 315 318 320 322 322 318 315 316 308 293 278 255 246 238 228 228 225 225 225 225 221 222 229 231 232
277 278 279 282 284 286 289 291 293 296 297 299 302 304 306 306 307 309 309 312 316 318 319 319 320 315 311 313 307 292 266 254 249 242 227 214 221 221 223 224 221 220 224 229 230
276 277 279 282 284 285 287 289 292 294 297 298 300 302 304 304 305 307 309 312 315 316 317 318 316 311 309 308 302 288 271 256 245 240 231 217 219 219 219 222 221 219 221 225 228
275 276 278 281 283 284 285 287 289 292 295 297 299 301 303 304 304 306 310 312 314 313 316 315 312 308 307 306 296 284 269 262 247 238 231 219 217 218 215 219 220 221 221 221 224
273 275 276 279 280 282 284 286 289 292 294 296 299 301 302 302 304 307 310 311 311 312 315 313 309 306 302 301 287 285 272 270 255 243 232 218 217 222 212 214 217 219 222 218 217
272 274 275 278 281 283 285 287 289 292 293 296 298 300 301 302 304 306 309 310 310 310 312 310 307 303 296 293 280 271 249 217 210 177 224 228 219 219 218 215 218 217 221 220 215
Height
11014 11015 11015 11015 11015 11015 11014 11012 11011 11009 11008 11006 11005 11005 11003 11001 11000 10999 11000 11000 10998 10998 10998 10995 10994 10993 10994 10992 10992 10990 10987 10985 10982 10984 10986 10984 10982 10983 10980 10978 10972 10969 10964 10960 10955
11011 11011 11011 11011 11011 11010 11009 11007 11005 11003 11001 10999 10998 10996 10995 10995 10994 10992 10992 10993 10992 10990 10989 10989 10987 10987 10987 10987 10987 10986 10984 10981 10978 10978 10980 10981 10980 10979 10979 10976 10974 10970 10966 10961 10957
11005 11005 11005 11005 11005 11004 11003 11001 10999 10997 10995 10993 10992 10989 10988 10986 10986 10983 10985 10982 10980 10982 10982 10981 10980 10979 10980 10979 10981 10980 10978 10976 10972 10973 10973 10976 10976 10976 10975 10973 10973 10971 10968 10963 10959
11001 11000 11000 10999 10999 10998 10995 10993 10992 10990 10988 10986 10983 10982 10979 10979 10978 10975 10970 10970 10971 10970 10970 10970 10969 10967 10968 10970 10970 10971 10969 10968 10968 10966 10967 10969 10971 10972 10971 10970 10969 10969 10968 10965 10959
10994 10993 10992 10992 10991 10990 10987 10985 10984 10983 10980 10978 10974 10971 10967 10969 10970 10963 10960 10959 10956 10956 10956 10954 10954 10957 10956 10955 10958 10957 10957 10960 10958 10959 10961 10961 10963 10966 10967 10965 10965 10966 10966 10964 10960
10987 10986 10985 10984 10984 10982 10979 10978 10975 10974 10970 10968 10964 10960 10955 10961 10956 10953 10948 10945 10943 10942 10943 10943 10942 10943 10943 10940 10945 10946 10946 10946 10948 10945 10952 10953 10954 10959 10960 10959 10960 10960 10963 10962 10959
10979 10978 10977 10976 10976 10973 10970 10969 10965 10965 10962 10958 10955 10950 10947 10950 10946 10944 10941 10939 10935 10931 10929 10931 10932 10930 10928 10925 10928 10932 10935 10934 10931 10933 10939 10944 10943 10950 10952 10953 10954 10954 10955 10958 10956
10971 10970 10968 10966 10966 10963 10960 10958 10956 10956 10954 10952 10949 10946 10941 10939 10939 10934 10933 10932 10928 10924 10919 10917 10919 10918 10917 10914 10913 10917 10921 10921 10910 10918 10923 10933 10936 10938 10943 10944 10947 10948 10949 10951 10952
10963 10962 10958 10956 10956 10954 10953 10952 10952 10950 10948 10946 10943 10942 10935 10927 10927 10925 10922 10919 10917 10913 10910 10907 10907 10908 10905 10904 10903 10903 10904 10905 10900 10902 10906 10919 10928 10924 10935 10935 10938 10940 10942 10943 10947
10954 10953 10950 10949 10948 10948 10948 10947 10946 10944 10941 10940 10936 10935 10929 10923 10919 10914 10912 10907 10905 10902 10899 10897 10895 10895 10892 10890 10893 10890 10892 10892 10889 10883 10890 10906 10917 10916 10921 10929 10926 10931 10934 10936 10938
10947 10947 10945 10944 10943 10943 10943 10940 10940 10938 10935 10933 10929 10927 10922 10918 10912 10906 10900 10896 10893 10888 10884 10883 10883 10881 10878 10877 10877 10877 10878 10880 10875 10868 10878 10888 10900 10905 10906 10917 10917 10920 10924 10928 10930
10941 10941 10940 10940 10938 10936 10935 10933 10932 10931 10930 10926 10921 10918 10913 10909 10908 10902 10895 10888 10881 10876 10872 10870 10867 10863 10862 10860 10860 10862 10865 10864 10858 10854 10867 10868 10889 10893 10895 10903 10908 10910 10913 10917 10921
10935 10936 10935 10933 10932 10930 10928 10925 10923 10923 10922 10918 10914 10911 10906 10899 10897 10892 10887 10882 10874 10868 10863 10857 10850 10846 10842 10839 10839 10844 10845 10841 10837 10836 10850 10854 10874 10879 10882 10889 10897 10899 10901 10906 10909
10929 10930 10928 10927 10926 10924 10922 10919 10916 10913 10914 10910 10905 10903 10900 10892 10888 10882 10876 10871 10864 10859 10853 10846 10838 10831 10825 10817 10813 10820 10814 10811 10814 10819 10832 10838 10860 10867 10870 10876 10883 10889 10889 10895 10899
10922 10922 10920 10920 10919 10917 10915 10911 10908 10905 10903 10899 10895 10892 10889 10885 10878 10872 10866 10861 10853 10846 10839 10829 10824 10816 10804 10793 10785 10794 10782 10785 10789 10799 10810 10822 10845 10851 10856 10864 10868 10875 10879 10883 10888
10914 10913 10912 10911 10908 10908 10906 10903 10899 10896 10891 10887 10883 10879 10875 10874 10870 10862 10855 10850 10842 10833 10826 10815 10807 10796 10784 10770 10762 10760 10756 10760 10768 10777 10786 10808 10823 10838 10840 10849 10854 10860 10867 10870 10877
10904 10903 10901 10900 10898 10896 10895 10893 10890 10885 10880 10875 10872 10867 10862 10856 10854 10850 10843 10837 10832 10821 10808 10793 10782 10770 10757 10747 10740 10735 10731 10736 10746 10755 10772 10783 10800 10824 10825 10833 10841 10847 10854 10858 10868
10893 10892 10889 10888 10887 10885 10883 10881 10878 10874 10867 10863 10859 10855 10849 10843 10838 10834 10830 10824 10818 10808 10794 10779 10763 10749 10739 10727 10719 10716 10712 10718 10726 10735 10750 10759 10782 10806 10810 10818 10826 10836 10843 10847 10857
10882 10880 10877 10876 10875 10873 10871 10869 10866 10861 10854 10849 10849 10841 10835 10828 10822 10816 10812 10805 10799 10792 10779 10763 10745 10730 10722 10711 10704 10702 10699 10703 10711 10722 10733 10742 10770 10786 10795 10804 10813 10824 10828 10833 10841
10870 10867 10865 10864 10862 10860 10858 10856 10853 10847 10843 10838 10834 10830 10820 10812 10807 10801 10795 10788 10783 10774 10764 10748 10728 10714 10707 10699 10693 10690 10690 10689 10698 10707 10718 10733 10751 10767 10775 10782 10796 10807 10812 10822 10831
10855 10854 10852 10850 10848 10846 10844 10843 10839 10835 10830 10827 10823 10814 10808 10796 10791 10785 10779 10772 10762 10753 10747 10734 10717 10700 10693 10691 10683 10680 10680 10680 10687 10698 10707 10721 10736 10746 10755 10767 10783 10793 10799 10811 10816
10840 10840 10837 10836 10834 10831 10830 10828 10824 10822 10817 10813 10808 10801 10794 10788 10773 10771 10762 10757 10752 10742 10728 10721 10712 10693 10681 10680 10678 10671 10670 10673 10680 10689 10699 10712 10728 10732 10743 10756 10769 10779 10788 10798 10804
10824 10824 10823 10821 10819 10817 10816 10812 10808 10806 10804 10799 10794 10786 10780 10774 10766 10754 10746 10741 10736 10730 10720 10706 10698 10687 10675 10670 10667 10665 10664 10663 10672 10679 10691 10701 10708 10714 10727 10739 10753 10764 10774 10785 10789
10809 10808 10806 10806 10803 10801 10800 10797 10792 10789 10787 10782 10780 10773 10767 10760 10753 10746 10735 10723 10721 10715 10707 10695 10682 10673 10668 10662 10659 10656 10655 10657 10664 10671 10678 10693 10692 10702 10714 10726 10739 10749 10759 10770 10778
10792 10791 10789 10789 10787 10784 10784 10781 10775 10774 10770 10764 10762 10758 10751 10745 10736 10731 10726 10713 10702 10697 10692 10683 10671 10661 10654 10652 10650 10648 10649 10650 10659 10662 10675 10676 10680 10689 10702 10714 10724 10734 10744 10755 10767
10773 10773 10773 10770 10769 10768 10766 10762 10759 10754 10752 10747 10742 10738 10733 10727 10720 10711 10709 10702 10688 10680 10678 10670 10658 10652 10643 10641 10639 10640 10642 10647 10652 10657 10662 10669 10674 10680 10691 10700 10712 10722 10732 10743 10755
10753 10753 10754 10752 10750 10750 10748 10744 10740 10736 10731 10729 10724 10719 10715 10709 10703 10698 10691 10682 10674 10664 10660 10655 10648 10640 10633 10632 10632 10634 10638 10640 10644 10648 10654 10664 10669 10675 10684 10692 10705 10714 10723 10734 10742